Date String (YYYY-MM-DD hh:mm:ss) UTC,Instrument flags,Ambient pressure (hPa),Sample flow (lpm),Bypass flow (lpm),Sample temperature (°C),Ambient temperature (°C),ASC tube jacket temperature (°C),LED temperature (°C),Box temperature (°C),Sample RH (%),Span deviation,Mass concentration (μg/m³),Mass concentration (μg/m³),Mass concentration (μg/m³)
DateTimeUTC,F1_M11,P_M11,Q1_M11,Q2_M11,T1_M11,T2_M11,T3_M11,T4_M11,T5_M11,U1_M11,ZSPAN_M11,X2_M11,X0_M11,X1_M11
2023-03-01 07:00:00,,0816.8,5.02,0.00,21.7,21.3,00.0,30.4,23.3,06.2,0000.0,0001.66,0004.90,0000.94
2023-03-01 07:01:00,,0816.8,5.00,0.00,21.6,20.8,00.0,30.4,23.2,06.2,0000.0,0001.62,0005.02,0000.94
2023-03-01 07:02:00,,0816.8,4.98,0.00,21.6,20.3,00.0,30.4,23.1,06.2,0000.0,0001.59,0004.70,0000.92
2023-03-01 07:03:00,,0816.7,5.00,0.00,21.5,20.0,00.0,30.4,23.0,06.2,0000.0,0001.59,0004.71,0000.91
2023-03-01 07:04:00,,0817.2,5.00,0.00,21.5,19.8,00.0,30.4,22.9,06.3,0000.0,0001.53,0004.38,0000.90
2023-03-01 07:05:00,,0817.2,4.99,0.00,21.4,19.5,00.0,30.4,22.8,06.3,0000.0,0001.54,0004.90,0000.91
2023-03-01 07:06:00,,0817.0,5.01,0.00,21.4,19.6,00.0,30.3,22.8,06.3,0000.0,0001.63,0005.88,0000.91
2023-03-01 07:07:00,,0817.0,4.98,0.00,21.4,20.9,00.0,30.3,23.1,06.3,0000.0,0001.60,0005.86,0000.91
2023-03-01 07:08:00,,0817.0,4.99,0.00,21.6,22.1,00.0,30.3,23.4,06.2,0000.0,0001.56,0006.53,0000.91
2023-03-01 07:09:00,,0817.0,5.00,0.00,21.7,22.4,00.0,30.4,23.6,06.2,0000.0,0001.53,0006.46,0000.91
2023-03-01 07:10:00,,0816.9,5.01,0.00,21.7,21.8,00.0,30.4,23.5,06.2,0000.0,0001.52,0007.39,0000.91
2023-03-01 07:11:00,,0816.8,5.00,0.00,21.7,21.2,00.0,30.4,23.4,06.1,0000.0,0001.52,0007.06,0000.92
2023-03-01 07:12:00,,0816.6,5.01,0.00,21.7,20.9,00.0,30.4,23.3,06.1,0000.0,0001.51,0006.24,0000.92
2023-03-01 07:13:00,,0816.6,5.00,0.00,21.7,20.6,00.0,30.4,23.3,06.1,0000.0,0001.56,0006.35,0000.93
2023-03-01 07:14:00,,0816.6,5.00,0.00,21.7,20.4,00.0,30.4,23.2,06.1,0000.0,0001.60,0006.46,0000.95
2023-03-01 07:15:00,,0816.6,4.99,0.00,21.6,20.2,00.0,30.4,23.2,06.1,0000.0,0001.62,0007.18,0000.94
2023-03-01 07:16:00,,0816.9,5.00,0.00,21.6,20.1,00.0,30.4,23.2,06.1,0000.0,0001.62,0006.82,0000.94
2023-03-01 07:17:00,,0816.8,5.01,0.00,21.6,20.1,00.0,30.4,23.2,06.1,0000.0,0001.53,0005.71,0000.93
2023-03-01 07:18:00,,0816.5,5.00,0.00,21.6,20.0,00.0,30.4,23.2,06.0,0000.0,0001.55,0005.71,0000.93
2023-03-01 07:19:00,,0816.6,5.02,0.00,21.6,20.4,00.0,30.4,23.3,06.0,0000.0,0001.55,0005.08,0000.92
2023-03-01 07:20:00,,0816.6,5.00,0.00,21.7,21.7,00.0,30.4,23.6,05.9,0000.0,0001.53,0005.93,0000.92
2023-03-01 07:21:00,,0816.7,5.04,0.00,21.9,22.9,00.0,30.4,23.9,05.9,0000.0,0001.53,0005.13,0000.91
2023-03-01 07:22:00,,0816.6,5.04,0.00,22.0,22.8,00.0,30.5,24.0,05.8,0000.0,0001.54,0004.82,0000.90
2023-03-01 07:23:00,,0816.7,4.99,0.00,22.0,22.2,00.0,30.5,23.9,05.8,0000.0,0001.60,0005.02,0000.89
2023-03-01 07:24:00,,0816.6,5.00,0.00,22.0,21.8,00.0,30.6,23.8,05.8,0000.0,0001.58,0005.03,0000.88
2023-03-01 07:25:00,,0816.6,4.98,0.00,22.0,21.4,00.0,30.6,23.8,05.9,0000.0,0001.55,0004.92,0000.88
2023-03-01 07:26:00,,0816.7,4.95,0.00,22.0,21.1,00.0,30.6,23.8,05.9,0000.0,0001.52,0004.22,0000.89
2023-03-01 07:27:00,,0817.0,5.00,0.00,22.0,20.9,00.0,30.6,23.7,05.8,0000.0,0001.51,0004.23,0000.88
2023-03-01 07:28:00,,0816.9,5.00,0.00,22.0,20.8,00.0,30.6,23.7,05.8,0000.0,0001.48,0004.20,0000.88
2023-03-01 07:29:00,,0816.8,4.99,0.00,22.0,20.6,00.0,30.6,23.6,05.8,0000.0,0001.44,0004.04,0000.89
2023-03-01 07:30:00,,0816.9,4.99,0.00,22.0,20.5,00.0,30.6,23.6,05.7,0000.0,0001.42,0003.98,0000.88
2023-03-01 07:31:00,,0816.8,5.01,0.00,21.9,20.4,00.0,30.6,23.6,05.7,0000.0,0001.41,0003.56,0000.88
2023-03-01 07:32:00,,0816.9,4.99,0.00,21.9,20.4,00.0,30.6,23.6,05.8,0000.0,0001.39,0003.84,0000.88
2023-03-01 07:33:00,,0816.9,4.99,0.00,21.9,20.3,00.0,30.6,23.5,05.8,0000.0,0001.37,0003.77,0000.89
2023-03-01 07:34:00,,0816.9,4.99,0.00,21.9,20.2,00.0,30.6,23.5,05.9,0000.0,0001.33,0005.17,0000.90
2023-03-01 07:35:00,,0817.1,5.02,0.00,21.9,20.5,00.0,30.6,23.6,06.0,0000.0,0001.34,0006.25,0000.91
2023-03-01 07:36:00,,0817.0,4.98,0.00,22.0,21.7,00.0,30.6,23.9,06.0,0000.0,0001.36,0006.73,0000.90
2023-03-01 07:37:00,,0816.9,5.04,0.00,22.1,22.8,00.0,30.6,24.1,06.0,0000.0,0001.38,0006.87,0000.89
2023-03-01 07:38:00,,0816.9,5.02,0.00,22.2,22.7,00.0,30.7,24.2,06.0,0000.0,0001.38,0006.89,0000.89
2023-03-01 07:39:00,,0816.8,5.00,0.00,22.2,22.2,00.0,30.7,24.1,06.0,0000.0,0001.42,0006.98,0000.90
2023-03-01 07:40:00,,0816.8,5.00,0.00,22.2,21.8,00.0,30.8,24.0,06.0,0000.0,0001.45,0007.08,0000.90
2023-03-01 07:41:00,,0816.9,4.98,0.00,22.2,21.4,00.0,30.8,23.9,06.0,0000.0,0001.52,0007.31,0000.91
2023-03-01 07:42:00,,0816.8,5.00,0.00,22.2,21.1,00.0,30.8,23.8,06.0,0000.0,0001.56,0006.99,0000.92
2023-03-01 07:43:00,,0817.1,4.99,0.00,22.1,20.8,00.0,30.8,23.7,06.1,0000.0,0001.59,0007.00,0000.93
2023-03-01 07:44:00,,0817.0,5.00,0.00,22.1,20.6,00.0,30.8,23.7,06.1,0000.0,0001.54,0006.87,0000.93
2023-03-01 07:45:00,,0816.7,5.01,0.00,22.0,20.4,00.0,30.8,23.6,06.1,0000.0,0001.49,0005.25,0000.93
2023-03-01 07:46:00,,0816.7,5.00,0.00,22.0,20.2,00.0,30.8,23.6,06.1,0000.0,0001.45,0004.01,0000.93
2023-03-01 07:47:00,,0816.6,4.98,0.00,22.0,20.1,00.0,30.7,23.5,06.1,0000.0,0001.47,0003.64,0000.93
2023-03-01 07:48:00,,0816.6,4.98,0.00,21.9,20.1,00.0,30.7,23.5,06.2,0000.0,0001.47,0003.61,0000.92
2023-03-01 07:49:00,,0816.6,5.00,0.00,21.9,20.0,00.0,30.7,23.5,06.1,0000.0,0001.47,0003.73,0000.92
2023-03-01 07:50:00,,0816.6,5.00,0.00,21.9,20.4,00.0,30.7,23.5,06.2,0000.0,0001.45,0004.03,0000.91
2023-03-01 07:51:00,,0816.5,4.99,0.00,22.0,21.6,00.0,30.7,23.8,06.1,0000.0,0001.43,0003.96,0000.91
2023-03-01 07:52:00,,0816.5,4.95,0.00,22.1,22.6,00.0,30.7,24.1,06.0,0000.0,0001.44,0003.95,0000.91
2023-03-01 07:53:00,,0816.5,5.01,0.00,22.2,22.5,00.0,30.7,24.1,06.0,0000.0,0001.41,0003.70,0000.91
2023-03-01 07:54:00,,0816.4,5.00,0.00,22.2,21.9,00.0,30.8,24.0,05.9,0000.0,0001.39,0003.25,0000.90
2023-03-01 07:55:00,,0816.4,5.00,0.00,22.2,21.3,00.0,30.8,23.9,06.0,0000.0,0001.41,0003.20,0000.89
2023-03-01 07:56:00,,0816.5,5.01,0.00,22.1,20.9,00.0,30.8,23.8,06.0,0000.0,0001.46,0003.32,0000.90
2023-03-01 07:57:00,,0816.4,5.01,0.00,22.1,20.6,00.0,30.8,23.7,05.9,0000.0,0001.53,0003.47,0000.90
2023-03-01 07:58:00,,0816.4,4.99,0.00,22.0,20.4,00.0,30.8,23.6,05.9,0000.0,0001.57,0003.54,0000.90
2023-03-01 07:59:00,,0816.5,5.00,0.00,22.0,20.2,00.0,30.8,23.5,05.8,0000.0,0001.60,0003.49,0000.91
